[[{"header":{"parameterUnit":"m.s-1","parameterCategory":1,"la1":30.2991,"la2":30.254,"lo1":-89.0895,"lo2":-89.0444,"dy":0.0017,"dx":0.0017,"nx":28,"ny":28,"refTime":"2026-02-01T09:00:00:Z","depth":0,"parameterNumber":2,"parameterNumberName":"U-component_of_WINDS"},"data":[0,0,0,0,0,0,0,0,0,0,0,0,0,0,0,0,0,0,0,0,0,0,0,0,0,0,0,0,0,0,0,0,0,0,0,0,0,0,0,0,0,0,0,0,0,0,0,0,0,0,0,0,0,0,0,0,0,0,1.7104,1.7106,0,1.7262,1.7263,1.7265,1.7282,1.7281,1.7279,1.7277,1.7439,1.7444,1.745,0,0,0,0,0,0,0,0,0,0,0,0,0,1.6817,1.6822,1.7104,1.7106,1.7108,1.7261,1.7264,1.7266,1.7282,1.7281,1.7279,1.7277,1.7437,1.7444,1.745,0,0,0,0,0,0,0,0,0,0,0,0,0,1.6955,1.6824,1.7104,1.7135,1.7139,1.7261,1.7264,1.7266,1.7283,1.728,1.7278,1.7276,1.7434,1.7443,1.7451,1.7553,0,0,1.7478,1.7482,0,0,0,0,0,0,0,0,1.6947,1.6965,1.7128,1.7133,1.7138,1.725,1.7221,1.7362,1.7283,1.7228,1.7277,1.7275,1.7378,1.7391,1.7426,1.756,1.7567,1.7479,1.7484,1.7488,1.749,0,0,0,0,0,0,0,1.6937,1.6958,1.7166,1.7131,1.7137,1.7141,1.7158,1.7248,1.7315,1.7233,1.7235,1.7253,1.738,1.7417,1.743,1.757,1.7478,1.7486,1.7491,1.7495,1.7794,1.7797,0,0,0,0,0,0,1.6922,1.695,1.7161,1.7171,1.7035,1.7148,1.7167,1.7216,1.7314,1.7326,1.7255,1.7253,1.7404,1.7419,1.7435,1.7559,1.7488,1.7496,1.7501,1.7792,1.7795,1.7798,0,0,0,0,0,0,1.6916,1.6941,1.7155,1.7061,1.7089,1.7155,1.7211,1.7221,1.7258,1.733,1.7342,1.7281,1.7402,1.7423,1.7523,1.7565,1.75,1.7507,1.7788,1.7793,1.7796,1.7809,0,0,0,0,0,0,1.6907,1.6938,1.6978,1.7062,1.7094,1.724,1.7214,1.7226,1.7273,1.7272,1.7358,1.737,1.7402,1.751,1.7532,1.7576,1.7514,1.7785,1.779,1.7795,1.7805,1.7813,1.7819,0,0,0,0,0,1.6897,1.6975,1.698,1.7005,1.7145,1.7243,1.7261,1.7297,1.7276,1.7316,1.7362,1.7367,1.7557,1.752,1.7545,1.7592,1.7782,1.7789,1.7795,1.7801,1.7811,1.7819,0,0,0,0,0,0,1.6894,1.6987,1.6993,1.71,1.7164,1.7245,1.7297,1.7306,1.7376,1.7373,1.7415,1.7434,1.7532,1.7572,1.7529,1.7695,1.7668,1.7679,1.7664,1.7674,1.7681,1.7669,1.7521,0,0,0,0,0,1.6906,1.6978,1.7055,1.7143,1.7174,1.723,1.7274,1.7297,1.7364,1.739,1.7444,1.7509,1.7583,1.7631,1.7704,1.7811,1.7829,1.7856,1.7863,1.7869,1.7878,1.7936,1.7948,1.7818,1.7818,1.7818,0,0,1.6931,1.699,1.7033,1.7144,1.7195,1.7268,1.7252,1.7331,1.7386,1.7402,1.75,1.7541,1.7616,1.772,1.7769,1.7757,1.7918,1.7877,1.7881,1.7887,1.7944,1.7956,1.7967,1.7822,1.7822,1.7821,0,0,1.7013,1.7066,1.7144,1.7196,1.7275,1.7312,1.733,1.7411,1.7439,1.7538,1.7551,1.7617,1.7745,1.7797,1.7841,1.7943,1.7949,1.7966,1.8003,1.806,1.807,1.8079,1.8115,1.8127,1.7975,1.7975,1.7975,0,1.7034,1.7146,1.7183,1.7261,1.7309,1.7328,1.7406,1.7455,1.7553,1.7585,1.7571,1.7731,1.7783,1.7899,1.7923,1.7959,1.798,1.7955,1.8066,1.8075,1.8085,1.8118,1.8132,1.7976,1.7976,1.7976,1.7976,0,1.7167,1.7244,1.7298,1.7391,1.7445,1.7523,1.7572,1.7622,1.764,1.7678,1.7777,1.7841,1.7926,1.7955,1.7973,1.8073,1.8064,1.8057,1.8031,1.8098,1.813,1.8144,1.7978,1.7978,1.7977,1.7977,0,0,1.7251,1.7365,1.7383,1.7426,1.7514,1.7574,1.7653,1.7736,1.7777,1.7844,1.791,1.8018,1.8012,1.8062,1.8086,1.8136,1.8211,1.8124,1.8126,1.8136,1.8324,1.8327,1.8341,1.8217,1.8219,1.8221,1.8317,0,1.7342,1.7483,1.7519,1.7639,1.7709,1.7728,1.7797,1.7858,1.7896,1.7961,1.8003,1.8078,1.8066,1.8095,1.8146,1.8191,1.8249,1.8185,1.8278,1.828,1.8256,1.8358,1.8362,1.8449,1.833,1.8332,1.8334,0,1.7468,1.7537,1.7663,1.7741,1.7772,1.7833,1.7912,1.7975,1.8044,1.8068,1.8123,1.8142,1.8224,1.8195,1.8308,1.8264,1.8304,1.8332,1.8336,1.8345,1.831,1.8368,1.8478,1.849,1.8354,1.8353,1.8351,0,1.7514,1.7639,1.7731,1.7767,1.786,1.7902,1.7943,1.801,1.8058,1.8127,1.8158,1.8235,1.8278,1.8337,1.8377,1.8352,1.8486,1.846,1.8508,1.8507,1.8534,1.8531,1.865,1.8563,1.8562,1.8562,1.8562,0,1.7611,1.7687,1.7752,1.7809,1.7894,1.7935,1.8019,1.806,1.812,1.8184,1.8206,1.8265,1.8315,1.8382,1.8413,1.8501,1.8521,1.8542,1.8549,1.8539,1.8536,1.8565,1.8559,1.8566,1.8565,1.8564,1.8564,0,1.7677,1.7724,1.7824,1.7905,1.7927,1.7986,1.8055,1.811,1.8148,1.8229,1.825,1.8311,1.839,1.8436,1.8536,1.8557,1.8655,1.866,1.8631,1.8634,1.8678,1.8673,1.8818,1.8838,1.8739,1.8739,1.874,0,1.7735,1.7794,1.788,1.7925,1.7966,1.8038,1.8086,1.8129,1.8178,1.8262,1.8306,1.8387,1.8453,1.8579,1.8631,1.8708,1.8714,1.876,1.8726,1.8713,1.8713,1.8708,1.8714,1.8765,1.8766,1.8767,1.8767,0,1.7832,1.7852,1.7921,1.7999,1.8056,1.8119,1.8181,1.8216,1.8269,1.8324,1.8405,1.8456,1.8558,1.8638,1.8718,1.876,1.8772,1.8778,1.8792,1.8782,1.8762,1.8772,1.8645,1.8774,1.8773,1.8773,1.8772,1.8772,1.7895,1.7948,1.8016,1.8092,1.8144,1.8202,1.8257,1.8302,1.8371,1.8457,1.8478,1.8563,1.8631,1.874,1.8784,1.8851,1.8843,1.8865,1.887,1.8874,1.8875,1.8752,1.8866,1.8866,1.8866,1.8866,1.8866,0,1.7992,1.8037,1.8107,1.8193,1.8253,1.826,1.8329,1.8378,1.8453,1.8515,1.858,1.8672,1.8749,1.8808,1.8887,1.8929,1.8936,1.8948,1.8945,1.8954,1.8878,1.8857,1.8941,1.8941,1.8941,1.8941,1.8941,1.8941,1.8049,1.8138,1.8167,1.8282,1.8327,1.841,1.8449,1.8502,1.8551,1.8654,1.8718,1.8756,1.8817,1.89,1.8971,1.8986,1.9013,1.9024,1.904,1.8967,1.8959,1.8951,1.8931,1.903,1.903,1.911,1.911,1.9111]},{"header":{"parameterUnit":"m.s-1","parameterCategory":1,"la1":30.2991,"la2":30.254,"lo1":-89.0895,"lo2":-89.0444,"dy":0.0017,"dx":0.0017,"nx":28,"ny":28,"refTime":"2026-02-01T09:00:00:Z","depth":0,"parameterNumber":3,"parameterNumberName":"V-component_of_WINDS"},"data":[0,0,0,0,0,0,0,0,0,0,0,0,0,0,0,0,0,0,0,0,0,0,0,0,0,0,0,0,0,0,0,0,0,0,0,0,0,0,0,0,0,0,0,0,0,0,0,0,0,0,0,0,0,0,0,0,0,0,3.8472,3.8472,0,3.8484,3.8484,3.8484,3.8401,3.8398,3.8396,3.8394,3.8406,3.8408,3.8411,0,0,0,0,0,0,0,0,0,0,0,0,0,3.8373,3.8376,3.8472,3.8472,3.8472,3.8484,3.8484,3.8484,3.8401,3.8398,3.8395,3.8393,3.8405,3.8408,3.8411,0,0,0,0,0,0,0,0,0,0,0,0,0,3.8404,3.8376,3.8472,3.8432,3.8428,3.8484,3.8484,3.8484,3.8402,3.8398,3.8394,3.8391,3.8404,3.8408,3.8412,3.8506,0,0,3.8423,3.8425,0,0,0,0,0,0,0,0,3.8402,3.8408,3.8437,3.8435,3.8431,3.8437,3.8454,3.8492,3.8402,3.8412,3.8394,3.8389,3.8419,3.8422,3.8432,3.8507,3.8507,3.8424,3.8426,3.8428,3.8429,0,0,0,0,0,0,0,3.84,3.8407,3.8476,3.8438,3.8434,3.8413,3.8413,3.8461,3.8435,3.8411,3.8405,3.8407,3.8417,3.8428,3.8431,3.8507,3.8423,3.8427,3.8429,3.8431,3.8658,3.8662,0,0,0,0,0,0,3.8404,3.8406,3.8476,3.8477,3.8408,3.8417,3.8418,3.8439,3.8434,3.843,3.841,3.8403,3.8423,3.8427,3.8431,3.854,3.8428,3.8431,3.8433,3.8654,3.8659,3.8663,0,0,0,0,0,0,3.8402,3.8411,3.8476,3.844,3.8446,3.8423,3.8447,3.8441,3.8452,3.8434,3.8429,3.8427,3.8421,3.8426,3.8488,3.8539,3.8433,3.8436,3.865,3.8656,3.8661,3.876,0,0,0,0,0,0,3.84,3.8411,3.8447,3.8441,3.8448,3.8533,3.845,3.8444,3.8459,3.845,3.8448,3.8445,3.8418,3.8482,3.8491,3.8543,3.8439,3.8645,3.8652,3.8659,3.8752,3.8768,3.8782,0,0,0,0,0,3.8396,3.8475,3.8449,3.8458,3.8493,3.8536,3.854,3.8508,3.8464,3.8499,3.8487,3.8445,3.8533,3.8489,3.8499,3.8552,3.8642,3.865,3.8659,3.8745,3.8765,3.8782,0,0,0,0,0,0,3.8488,3.8473,3.8445,3.8524,3.8532,3.8521,3.8566,3.8531,3.8551,3.8542,3.8501,3.8502,3.857,3.8567,3.8519,3.8642,3.8579,3.859,3.8641,3.866,3.8675,3.8674,3.8442,0,0,0,0,0,3.8517,3.8553,3.8538,3.8609,3.8615,3.859,3.8607,3.8582,3.8588,3.8591,3.8584,3.8591,3.862,3.864,3.8666,3.8751,3.8748,3.8792,3.8807,3.882,3.8829,3.8872,3.8891,3.8691,3.8691,3.869,0,0,3.8579,3.8575,3.86,3.8628,3.8631,3.8668,3.8593,3.8636,3.8663,3.8597,3.8655,3.865,3.8655,3.8728,3.876,3.8728,3.8884,3.883,3.8841,3.8843,3.8883,3.8902,3.8919,3.8696,3.8695,3.8695,0,0,3.8709,3.871,3.8769,3.8773,3.8778,3.876,3.8775,3.8769,3.8763,3.882,3.8771,3.8802,3.8854,3.8859,3.8868,3.8999,3.896,3.9008,3.9087,3.9129,3.9145,3.9159,3.9204,3.9221,3.9018,3.9018,3.9018,0,3.8784,3.8839,3.8803,3.8849,3.8862,3.8803,3.8861,3.8867,3.8881,3.8891,3.8855,3.8916,3.8916,3.8989,3.9021,3.9031,3.9044,3.9008,3.9146,3.9159,3.9172,3.9214,3.9231,3.9024,3.9023,3.9023,3.9022,0,3.893,3.8969,3.9015,3.9029,3.9047,3.9099,3.907,3.9092,3.9065,3.9051,3.9109,3.9107,3.913,3.9145,3.912,3.9214,3.9194,3.9153,3.9088,3.9197,3.9236,3.9252,3.9032,3.903,3.9028,3.9027,0,0,3.912,3.9111,3.9129,3.9134,3.9134,3.9163,3.9211,3.9234,3.9253,3.9264,3.9303,3.9347,3.9308,3.9319,3.9293,3.9331,3.9432,3.9284,3.9283,3.9311,3.9534,3.9565,3.9584,3.9406,3.9409,3.9412,3.9533,0,3.9245,3.9328,3.9296,3.9381,3.9415,3.9359,3.9401,3.9405,3.9393,3.942,3.9406,3.9438,3.9385,3.9391,3.9425,3.9412,3.9476,3.9403,3.9441,3.9443,3.9441,3.9605,3.9638,3.9753,3.9549,3.9551,3.9553,0,3.9404,3.942,3.9508,3.95,3.9514,3.9552,3.9569,3.9596,3.9599,3.9587,3.9599,3.9564,3.961,3.9547,3.9609,3.956,3.9573,3.9569,3.9573,3.9575,3.9504,3.961,3.9789,3.9806,3.9577,3.9575,3.9574,0,3.9531,3.9576,3.9633,3.9639,3.9632,3.966,3.9659,3.9658,3.9673,3.9688,3.9697,3.9718,3.9729,3.9745,3.9716,3.9673,3.9782,3.9717,3.9773,3.9774,3.9799,3.9797,3.9981,3.9809,3.9809,3.9808,3.9808,0,3.9675,3.9731,3.969,3.9726,3.9785,3.9748,3.9808,3.9801,3.9801,3.9833,3.9786,3.9817,3.9778,3.9806,3.9784,3.9838,3.9843,3.9835,3.9828,3.9839,3.984,3.9846,3.9837,3.9813,3.9812,3.9811,3.981,0,3.9828,3.9803,3.9862,3.985,3.9848,3.9893,3.9882,3.9914,3.9898,3.994,3.9947,3.9922,3.9952,3.9925,3.9954,3.9939,4.0011,3.9993,4.0009,4.0004,4.0062,4.0057,4.0256,4.028,4.0094,4.0095,4.0097,0,3.9921,3.9962,3.9954,3.9972,3.9973,4.0003,4.0018,3.9982,3.9999,4.0005,4.0036,4.0061,4.0079,4.0129,4.0114,4.0135,4.0117,4.0185,4.012,4.0128,4.0116,4.0114,4.0117,4.0198,4.0201,4.0202,4.0204,0,4.0088,4.0073,4.0096,4.0114,4.0133,4.0145,4.0154,4.0172,4.0135,4.0156,4.0185,4.0199,4.0228,4.0253,4.0269,4.0267,4.0229,4.0225,4.0238,4.0249,4.0257,4.0252,4.0045,4.022,4.0218,4.0217,4.0216,4.0216,4.0213,4.0246,4.0245,4.0272,4.0274,4.0283,4.0312,4.0299,4.0323,4.0342,4.032,4.0355,4.0356,4.0373,4.0375,4.0402,4.0374,4.0394,4.0399,4.0405,4.0413,4.0253,4.0405,4.0405,4.0404,4.0404,4.0404,0,4.0377,4.0373,4.0398,4.0411,4.0431,4.0393,4.0401,4.042,4.0452,4.0455,4.0474,4.0507,4.0531,4.0517,4.0537,4.0561,4.0544,4.0568,4.0565,4.0565,4.0438,4.0423,4.0581,4.0581,4.0581,4.0581,4.0581,4.0581,4.0465,4.0518,4.0503,4.0557,4.0552,4.0586,4.0593,4.0601,4.0603,4.0642,4.0661,4.0651,4.0648,4.0667,4.0687,4.0682,4.0692,4.0721,4.071,4.0592,4.0574,4.0558,4.0543,4.0724,4.0724,4.0835,4.0836,4.0837]}]]